IBE6175 KLAX-LEMD

Flight info

Callsign IBE6175
Flight time N/A
Altitude 35000
Route ORCKA5 LAS DCT BAWER DCT JNC DCT FQF DCT STJ/N0486F370 DCT SPI DCT VHP DCT SHB DCT RID DCT AIR DCT IHD DCT CYN DCT OWENZ DCT JOBOC/M083F370 DCT 40N060W 41N050W/M083F390 4130N04000W 42N030W 42N020W DCT BANAL/N0477F410 DCT ADORO/N0485F400 L155 ZMR
Aircraft B772/H-SDE2E3FGHIJ5LORVWXY/LB1D1

Departure

Time 2026-05-07 01:05
Airport Los Angeles International Airport (KLAX)

Arrival

Time N/A
Airport Adolfo Suárez Madrid–Barajas Airport (LEMD)
Time Latitude Longitude Altitude Speed Heading
2026-05-07 00:40 33.94571 -118.41466 99 ft 0 kts 263°
2026-05-07 00:50 33.94573 -118.41449 103 ft 4 kts 263°
2026-05-07 00:50 33.94576 -118.41417 82 ft 4 kts 263°
2026-05-07 00:50 33.94579 -118.41386 99 ft 4 kts 255°
2026-05-07 00:50 33.94583 -118.41371 98 ft 4 kts 197°
2026-05-07 00:51 33.94599 -118.41370 98 ft 4 kts 173°
2026-05-07 00:51 33.94624 -118.41374 98 ft 2 kts 173°
2026-05-07 00:51 33.94627 -118.41374 98 ft 3 kts 173°
2026-05-07 00:57 33.94592 -118.41369 101 ft 10 kts 173°
2026-05-07 00:57 33.94449 -118.41348 100 ft 20 kts 173°
2026-05-07 00:57 33.94343 -118.41330 101 ft 25 kts 173°
2026-05-07 00:57 33.94151 -118.41301 100 ft 31 kts 173°
2026-05-07 00:58 33.93921 -118.41270 101 ft 34 kts 174°
2026-05-07 00:58 33.93772 -118.41236 106 ft 18 kts 144°
2026-05-07 00:58 33.93767 -118.41091 106 ft 23 kts 84°
2026-05-07 00:58 33.93785 -118.40878 106 ft 29 kts 83°
2026-05-07 00:59 33.93846 -118.40282 109 ft 40 kts 83°
2026-05-07 00:59 33.93881 -118.39945 109 ft 39 kts 82°
2026-05-07 00:59 33.93919 -118.39593 107 ft 45 kts 83°
2026-05-07 01:00 33.93956 -118.39228 106 ft 42 kts 82°
2026-05-07 01:00 33.93990 -118.38889 106 ft 39 kts 83°
2026-05-07 01:00 33.94024 -118.38580 107 ft 34 kts 82°
2026-05-07 01:00 33.94035 -118.38475 107 ft 0 kts 83°
2026-05-07 01:01 33.94035 -118.38473 107 ft 2 kts 84°
2026-05-07 01:01 33.94042 -118.38393 108 ft 16 kts 84°
2026-05-07 01:01 33.94040 -118.38354 107 ft 0 kts 106°
2026-05-07 01:01 33.94041 -118.38344 108 ft 5 kts 82°
2026-05-07 01:02 33.94054 -118.38269 108 ft 10 kts 79°
2026-05-07 01:02 33.94065 -118.38185 107 ft 10 kts 82°
2026-05-07 01:02 33.94073 -118.38102 107 ft 10 kts 84°
2026-05-07 01:02 33.94069 -118.38023 107 ft 9 kts 120°
2026-05-07 01:03 33.94017 -118.37993 111 ft 8 kts 167°
2026-05-07 01:03 33.93987 -118.38010 111 ft 5 kts 240°
2026-05-07 01:03 33.93984 -118.38034 111 ft 0 kts 264°
2026-05-07 01:04 33.93983 -118.38042 112 ft 8 kts 264°
2026-05-07 01:04 33.93946 -118.38392 113 ft 79 kts 263°
2026-05-07 01:04 33.93849 -118.39329 111 ft 144 kts 263°
2026-05-07 01:04 33.93707 -118.40695 406 ft 173 kts 263°
2026-05-07 01:05 33.93547 -118.42163 1141 ft 181 kts 261°
2026-05-07 01:05 33.93364 -118.43704 1924 ft 188 kts 262°
2026-05-07 01:05 33.93173 -118.45276 2486 ft 198 kts 264°
2026-05-07 01:05 33.92963 -118.46974 2693 ft 215 kts 256°
2026-05-07 01:06 33.92445 -118.48747 2941 ft 232 kts 244°
2026-05-07 01:06 33.91520 -118.50408 3154 ft 253 kts 227°
2026-05-07 01:06 33.90120 -118.51768 3580 ft 264 kts 210°
2026-05-07 01:06 33.88402 -118.52624 4155 ft 270 kts 194°
2026-05-07 01:07 33.86525 -118.52891 4774 ft 274 kts 178°
2026-05-07 01:07 33.84645 -118.52547 5370 ft 275 kts 161°
2026-05-07 01:07 33.82915 -118.51617 6041 ft 271 kts 145°
2026-05-07 01:07 33.81471 -118.50171 6577 ft 270 kts 124°
2026-05-07 01:08 33.80737 -118.48118 6953 ft 271 kts 92°
2026-05-07 01:08 33.80980 -118.45940 7457 ft 267 kts 64°
2026-05-07 01:08 33.82000 -118.44076 8048 ft 264 kts 46°
2026-05-07 01:08 33.83304 -118.42526 8579 ft 266 kts 43°
2026-05-07 01:09 33.84657 -118.41017 9090 ft 269 kts 42°
2026-05-07 01:09 33.86041 -118.39492 9661 ft 271 kts 42°
2026-05-07 01:09 33.87430 -118.37958 10217 ft 272 kts 42°
2026-05-07 01:09 33.88857 -118.36374 10392 ft 288 kts 43°
2026-05-07 01:10 33.90376 -118.34679 10509 ft 306 kts 43°
2026-05-07 01:10 33.91982 -118.32877 10658 ft 324 kts 43°
2026-05-07 01:10 33.93681 -118.30966 10798 ft 343 kts 43°
2026-05-07 01:10 33.95457 -118.28961 11160 ft 355 kts 43°
2026-05-07 01:11 33.97276 -118.26903 11746 ft 362 kts 43°
2026-05-07 01:11 33.99126 -118.24808 12419 ft 365 kts 43°
2026-05-07 01:11 34.00986 -118.22699 13139 ft 368 kts 43°
2026-05-07 01:11 34.02838 -118.20599 13832 ft 371 kts 43°
2026-05-07 01:12 34.04728 -118.18452 14401 ft 375 kts 43°
2026-05-07 01:12 34.06639 -118.16281 14990 ft 378 kts 43°
2026-05-07 01:12 34.08569 -118.14087 15577 ft 382 kts 43°
2026-05-07 01:12 34.10517 -118.11868 16150 ft 385 kts 44°
2026-05-07 01:13 34.12340 -118.09519 16683 ft 389 kts 49°
2026-05-07 01:13 34.13966 -118.06893 17219 ft 392 kts 55°
2026-05-07 01:13 34.15496 -118.04151 17736 ft 396 kts 55°
2026-05-07 01:13 34.17039 -118.01376 18275 ft 399 kts 55°
2026-05-07 01:14 34.18601 -117.98575 18730 ft 401 kts 55°
2026-05-07 01:14 34.20164 -117.95777 19226 ft 402 kts 55°
2026-05-07 01:14 34.21739 -117.92964 19664 ft 403 kts 54°
2026-05-07 01:14 34.23316 -117.90152 20144 ft 406 kts 54°
2026-05-07 01:15 34.24887 -117.87350 20537 ft 409 kts 54°
2026-05-07 01:15 34.26489 -117.84492 20990 ft 411 kts 54°
2026-05-07 01:15 34.28099 -117.81620 21367 ft 414 kts 54°
2026-05-07 01:15 34.29723 -117.78716 21798 ft 417 kts 54°
2026-05-07 01:16 34.31352 -117.75805 22262 ft 419 kts 54°
2026-05-07 01:16 34.32986 -117.72878 22720 ft 420 kts 54°
2026-05-07 01:16 34.34623 -117.69942 23173 ft 422 kts 54°
2026-05-07 01:16 34.36303 -117.66997 23509 ft 426 kts 53°
2026-05-07 01:17 34.38040 -117.64074 23858 ft 428 kts 53°
2026-05-07 01:17 34.39775 -117.61197 24229 ft 429 kts 52°
2026-05-07 01:17 34.41537 -117.58280 24627 ft 430 kts 52°
2026-05-07 01:17 34.43301 -117.55351 25003 ft 431 kts 52°
2026-05-07 01:18 34.45070 -117.52402 25353 ft 433 kts 53°
2026-05-07 01:18 34.46842 -117.49436 25700 ft 435 kts 53°
2026-05-07 01:18 34.48621 -117.46451 26046 ft 437 kts 53°
2026-05-07 01:18 34.50397 -117.43464 26391 ft 438 kts 53°
2026-05-07 01:19 34.52185 -117.40453 26735 ft 440 kts 53°
2026-05-07 01:19 34.53978 -117.37430 27056 ft 442 kts 53°
2026-05-07 01:19 34.55775 -117.34398 27356 ft 444 kts 53°
2026-05-07 01:19 34.57581 -117.31349 27666 ft 446 kts 53°
2026-05-07 01:20 34.59394 -117.28286 27958 ft 448 kts 53°
2026-05-07 01:20 34.61216 -117.25205 28246 ft 449 kts 53°
2026-05-07 01:20 34.63040 -117.22118 28522 ft 451 kts 53°
2026-05-07 01:20 34.64866 -117.19025 28775 ft 452 kts 53°
2026-05-07 01:21 34.66678 -117.15954 29036 ft 454 kts 53°
2026-05-07 01:21 34.68518 -117.12833 29256 ft 455 kts 53°
2026-05-07 01:21 34.70365 -117.09696 29498 ft 456 kts 53°
2026-05-07 01:21 34.72212 -117.06557 29696 ft 458 kts 53°
2026-05-07 01:22 34.74073 -117.03390 29891 ft 460 kts 53°
2026-05-07 01:22 34.75933 -117.00222 30144 ft 460 kts 53°
2026-05-07 01:22 34.77793 -116.97051 30416 ft 459 kts 53°
2026-05-07 01:22 34.79643 -116.93895 30723 ft 458 kts 53°
2026-05-07 01:23 34.81491 -116.90739 31017 ft 457 kts 53°
2026-05-07 01:23 34.83333 -116.87592 31278 ft 456 kts 53°
2026-05-07 01:23 34.85171 -116.84448 31539 ft 456 kts 53°